[[{"header":{"parameterUnit":"m.s-1","parameterCategory":1,"la1":30.2991,"la2":30.254,"lo1":-89.0895,"lo2":-89.0444,"dy":0.0017,"dx":0.0017,"nx":28,"ny":28,"refTime":"2025-03-28T21:00:00:Z","depth":0,"parameterNumber":2,"parameterNumberName":"U-component_of_WINDS"},"data":[0,0,0,0,0,0,0,0,0,0,0,0,0,0,0,0,0,0,0,0,0,0,0,0,0,0,0,0,0,0,0,0,0,0,0,0,0,0,0,0,0,0,0,0,0,0,0,0,0,0,0,0,0,0,0,0,0,0,-5.507,-5.5071,0,-5.5136,-5.5137,-5.5138,-5.512,-5.5119,-5.5117,-5.5116,-5.518,-5.5183,-5.5186,0,0,0,0,0,0,0,0,0,0,0,0,0,-5.4926,-5.4929,-5.507,-5.5071,-5.5072,-5.5136,-5.5137,-5.5138,-5.512,-5.5119,-5.5117,-5.5115,-5.5179,-5.5183,-5.5186,0,0,0,0,0,0,0,0,0,0,0,0,0,-5.499,-5.493,-5.507,-5.5071,-5.5072,-5.5136,-5.5137,-5.5138,-5.5121,-5.5119,-5.5117,-5.5115,-5.5178,-5.5182,-5.5187,-5.5253,0,0,-5.52,-5.5202,0,0,0,0,0,0,0,0,-5.4986,-5.4995,-5.507,-5.5071,-5.5072,-5.5118,-5.511,-5.5177,-5.5121,-5.5102,-5.5116,-5.5114,-5.5161,-5.5166,-5.5183,-5.5256,-5.5259,-5.52,-5.5203,-5.5205,-5.5206,0,0,0,0,0,0,0,-5.4982,-5.4992,-5.5096,-5.5071,-5.5072,-5.5067,-5.5074,-5.5122,-5.5141,-5.5103,-5.5102,-5.5111,-5.5161,-5.5179,-5.5184,-5.526,-5.52,-5.5204,-5.5207,-5.5209,-5.539,-5.5392,0,0,0,0,0,0,-5.4977,-5.4989,-5.5094,-5.5098,-5.5024,-5.5071,-5.5079,-5.5105,-5.5141,-5.5145,-5.5112,-5.5109,-5.5172,-5.5179,-5.5187,-5.5265,-5.5205,-5.5209,-5.5212,-5.5388,-5.539,-5.5393,0,0,0,0,0,0,-5.4974,-5.4987,-5.5091,-5.5043,-5.5056,-5.5076,-5.5105,-5.5107,-5.5125,-5.5148,-5.5151,-5.5127,-5.5171,-5.518,-5.5237,-5.5267,-5.5211,-5.5215,-5.5385,-5.5388,-5.5391,-5.5424,0,0,0,0,0,0,-5.497,-5.4986,-5.5012,-5.5044,-5.5059,-5.5141,-5.5107,-5.511,-5.5133,-5.513,-5.5162,-5.5166,-5.517,-5.523,-5.5241,-5.5272,-5.5218,-5.5382,-5.5386,-5.539,-5.542,-5.5428,-5.5434,0,0,0,0,0,-5.4965,-5.5018,-5.5013,-5.5026,-5.5092,-5.5143,-5.5151,-5.5156,-5.5136,-5.5161,-5.5176,-5.5165,-5.5263,-5.5236,-5.5248,-5.5281,-5.538,-5.5385,-5.539,-5.5417,-5.5426,-5.5434,0,0,0,0,0,0,-5.4987,-5.5022,-5.5017,-5.5082,-5.511,-5.514,-5.5172,-5.5167,-5.52,-5.5195,-5.52,-5.5207,-5.5264,-5.5279,-5.5248,-5.5347,-5.5318,-5.5326,-5.5335,-5.5344,-5.5351,-5.5345,-5.5222,0,0,0,0,0,-5.5,-5.5039,-5.5068,-5.5122,-5.5136,-5.5152,-5.5175,-5.5177,-5.5205,-5.5216,-5.5235,-5.5262,-5.5299,-5.5323,-5.5358,-5.5424,-5.5429,-5.5452,-5.5459,-5.5465,-5.5471,-5.5505,-5.5515,-5.5409,-5.5409,-5.5409,0,0,-5.5025,-5.505,-5.5074,-5.5127,-5.5149,-5.5188,-5.5162,-5.5205,-5.5234,-5.5222,-5.5276,-5.5291,-5.5322,-5.5383,-5.541,-5.5396,-5.5502,-5.5472,-5.5476,-5.5478,-5.5511,-5.5521,-5.553,-5.5412,-5.5411,-5.5411,0,0,-5.5092,-5.5115,-5.5163,-5.5186,-5.5219,-5.523,-5.5242,-5.5273,-5.5283,-5.5338,-5.5329,-5.5364,-5.5428,-5.545,-5.5469,-5.5546,-5.5536,-5.5558,-5.5594,-5.5628,-5.5636,-5.5643,-5.5668,-5.5678,-5.5564,-5.5564,-5.5564,0,-5.5119,-5.518,-5.5187,-5.5232,-5.5254,-5.5248,-5.5295,-5.5316,-5.536,-5.5375,-5.536,-5.544,-5.546,-5.5525,-5.5544,-5.5561,-5.5573,-5.5552,-5.5634,-5.5642,-5.5649,-5.5673,-5.5683,-5.5566,-5.5566,-5.5566,-5.5566,0,-5.521,-5.5253,-5.5287,-5.533,-5.5357,-5.5402,-5.5416,-5.5443,-5.5443,-5.5455,-5.551,-5.5535,-5.5575,-5.5591,-5.5592,-5.5657,-5.5647,-5.5633,-5.5604,-5.5661,-5.5683,-5.5693,-5.5569,-5.5569,-5.5568,-5.5567,0,0,-5.5289,-5.5338,-5.535,-5.5369,-5.5407,-5.5439,-5.5484,-5.5524,-5.5546,-5.5577,-5.5614,-5.5669,-5.5657,-5.5679,-5.5682,-5.5712,-5.5769,-5.5695,-5.5695,-5.5705,-5.584,-5.5848,-5.5859,-5.5765,-5.5767,-5.5768,-5.5837,0,-5.5357,-5.5437,-5.5446,-5.5517,-5.5555,-5.5551,-5.559,-5.5617,-5.563,-5.5664,-5.5678,-5.5716,-5.5698,-5.5711,-5.5741,-5.5756,-5.5796,-5.5752,-5.5797,-5.5798,-5.5786,-5.5871,-5.5879,-5.5942,-5.5846,-5.5847,-5.5849,0,-5.5446,-5.548,-5.5555,-5.5588,-5.5604,-5.5639,-5.5677,-5.571,-5.574,-5.5748,-5.5774,-5.5773,-5.5819,-5.5791,-5.5853,-5.5823,-5.5842,-5.5853,-5.5855,-5.5857,-5.5824,-5.5872,-5.5963,-5.5971,-5.5863,-5.5862,-5.5861,0,-5.5493,-5.5558,-5.5611,-5.5628,-5.5668,-5.5693,-5.571,-5.5739,-5.5763,-5.5796,-5.5811,-5.5849,-5.5869,-5.5898,-5.5907,-5.5886,-5.5968,-5.5941,-5.5974,-5.5973,-5.5988,-5.5986,-5.6081,-5.6006,-5.6006,-5.6006,-5.6006,0,-5.5565,-5.5611,-5.5633,-5.5665,-5.5715,-5.5726,-5.5775,-5.5792,-5.5818,-5.5852,-5.5852,-5.5884,-5.5896,-5.593,-5.5938,-5.5987,-5.5997,-5.6003,-5.6004,-5.6001,-5.6,-5.6011,-5.6006,-5.6009,-5.6008,-5.6008,-5.6007,0,-5.5624,-5.5641,-5.5698,-5.5733,-5.5742,-5.5778,-5.5806,-5.5837,-5.5851,-5.5895,-5.5905,-5.5926,-5.5967,-5.598,-5.6029,-5.6034,-5.6091,-5.6089,-5.608,-5.6079,-5.611,-5.6106,-5.6212,-5.6226,-5.6145,-5.6146,-5.6147,0,-5.5668,-5.5703,-5.5742,-5.5765,-5.5784,-5.5822,-5.5847,-5.5859,-5.5884,-5.5922,-5.5948,-5.5989,-5.6021,-5.6086,-5.6104,-5.6142,-5.6139,-5.6174,-5.6145,-5.6141,-5.6137,-5.6133,-5.6136,-5.6178,-5.6179,-5.618,-5.6181,0,-5.5743,-5.575,-5.5786,-5.5825,-5.5855,-5.5886,-5.5916,-5.5935,-5.5952,-5.598,-5.6022,-5.6047,-5.6098,-5.6137,-5.6175,-5.6192,-5.6189,-5.619,-5.6199,-5.6195,-5.6187,-5.6189,-5.6092,-5.6187,-5.6186,-5.6186,-5.6185,-5.6185,-5.5794,-5.5825,-5.5856,-5.5896,-5.5921,-5.5949,-5.5979,-5.5998,-5.6033,-5.6075,-5.6081,-5.6125,-5.6155,-5.6206,-5.6225,-5.626,-5.625,-5.6263,-5.6266,-5.6269,-5.627,-5.6185,-5.6267,-5.6267,-5.6267,-5.6267,-5.6267,0,-5.5867,-5.5887,-5.5924,-5.5967,-5.5998,-5.5995,-5.6028,-5.6054,-5.6093,-5.6122,-5.6155,-5.6202,-5.6241,-5.6264,-5.6303,-5.6326,-5.6325,-5.6335,-5.6332,-5.6335,-5.6278,-5.6265,-5.6335,-5.6335,-5.6335,-5.6335,-5.6335,-5.6335,-5.5908,-5.5959,-5.597,-5.6033,-5.6053,-5.6097,-5.6116,-5.6142,-5.6165,-5.6218,-5.6251,-5.6266,-5.6293,-5.6333,-5.6368,-5.6374,-5.6387,-5.6398,-5.6402,-5.6347,-5.634,-5.6333,-5.632,-5.6401,-5.6401,-5.6457,-5.6457,-5.6457]},{"header":{"parameterUnit":"m.s-1","parameterCategory":1,"la1":30.2991,"la2":30.254,"lo1":-89.0895,"lo2":-89.0444,"dy":0.0017,"dx":0.0017,"nx":28,"ny":28,"refTime":"2025-03-28T21:00:00:Z","depth":0,"parameterNumber":3,"parameterNumberName":"V-component_of_WINDS"},"data":[0,0,0,0,0,0,0,0,0,0,0,0,0,0,0,0,0,0,0,0,0,0,0,0,0,0,0,0,0,0,0,0,0,0,0,0,0,0,0,0,0,0,0,0,0,0,0,0,0,0,0,0,0,0,0,0,0,0,5.148,5.1482,0,5.1628,5.1629,5.1631,5.1632,5.163,5.1628,5.1626,5.1771,5.1776,5.1782,0,0,0,0,0,0,0,0,0,0,0,0,0,5.1195,5.1201,5.148,5.1482,5.1484,5.1627,5.1629,5.1631,5.1632,5.163,5.1627,5.1625,5.1769,5.1775,5.1782,0,0,0,0,0,0,0,0,0,0,0,0,0,5.1328,5.1202,5.148,5.1502,5.1505,5.1627,5.1629,5.1632,5.1632,5.163,5.1627,5.1624,5.1767,5.1775,5.1783,5.1891,0,0,5.1809,5.1812,0,0,0,0,0,0,0,0,5.1321,5.1339,5.1497,5.15,5.1504,5.1609,5.1582,5.1718,5.1633,5.1584,5.1626,5.1623,5.1719,5.1731,5.1764,5.1898,5.1904,5.1809,5.1815,5.1818,5.1821,0,0,0,0,0,0,0,5.1312,5.1332,5.1538,5.1499,5.1504,5.1503,5.1519,5.1608,5.1665,5.1588,5.1588,5.1606,5.172,5.1756,5.1768,5.1906,5.1809,5.1817,5.1822,5.1825,5.2137,5.214,0,0,0,0,0,0,5.1299,5.1325,5.1534,5.1543,5.1404,5.151,5.1528,5.1578,5.1664,5.1675,5.1608,5.1606,5.1743,5.1758,5.1773,5.1906,5.1818,5.1826,5.1831,5.2134,5.2138,5.2141,0,0,0,0,0,0,5.1293,5.1317,5.1528,5.1434,5.1461,5.1518,5.1574,5.1582,5.1618,5.168,5.1689,5.1635,5.1742,5.1761,5.1862,5.1911,5.183,5.1837,5.213,5.2135,5.214,5.2172,0,0,0,0,0,0,5.1284,5.1315,5.1357,5.1435,5.1466,5.1616,5.1577,5.1587,5.1634,5.1631,5.1707,5.1717,5.1741,5.185,5.1871,5.1921,5.1844,5.2126,5.2132,5.2138,5.2167,5.2178,5.2187,0,0,0,0,0,5.1274,5.1359,5.136,5.1385,5.152,5.1619,5.1636,5.1664,5.1637,5.168,5.172,5.1715,5.1903,5.186,5.1884,5.1937,5.2123,5.2131,5.2138,5.2163,5.2176,5.2187,0,0,0,0,0,0,5.1283,5.1369,5.1371,5.1484,5.1544,5.1619,5.1673,5.1676,5.1744,5.1739,5.1769,5.1786,5.1887,5.1922,5.1874,5.2047,5.2009,5.2022,5.202,5.2033,5.2043,5.2032,5.1851,0,0,0,0,0,5.1298,5.1373,5.1444,5.1536,5.1567,5.1615,5.1659,5.1676,5.1739,5.1763,5.181,5.187,5.1943,5.199,5.206,5.2173,5.2189,5.2221,5.2231,5.2239,5.2249,5.2312,5.2327,5.2166,5.2166,5.2165,0,0,5.133,5.1386,5.1431,5.154,5.1588,5.1664,5.1636,5.1717,5.1773,5.1775,5.1875,5.1912,5.198,5.2088,5.2138,5.2121,5.2298,5.2248,5.2254,5.226,5.2321,5.2337,5.235,5.2171,5.217,5.2169,0,0,5.1426,5.1477,5.156,5.1611,5.1686,5.1718,5.1739,5.1814,5.1839,5.194,5.1944,5.201,5.2135,5.2184,5.2225,5.2344,5.2342,5.2366,5.2417,5.2478,5.2491,5.2503,5.2545,5.256,5.2376,5.2376,5.2376,0,5.1455,5.1571,5.1602,5.1685,5.1732,5.1741,5.1825,5.1872,5.1965,5.1998,5.1977,5.2136,5.2182,5.2303,5.2332,5.2365,5.2389,5.2357,5.2487,5.2499,5.251,5.2551,5.2567,5.2379,5.2378,5.2378,5.2378,0,5.1604,5.1684,5.1742,5.1836,5.189,5.1973,5.2016,5.2067,5.2079,5.2113,5.2216,5.2273,5.2356,5.2386,5.2397,5.2509,5.2496,5.2481,5.2444,5.2528,5.2567,5.2583,5.2382,5.2381,5.2381,5.238,0,0,5.1707,5.182,5.1841,5.1884,5.197,5.2031,5.2115,5.2198,5.2242,5.2307,5.2377,5.2484,5.2472,5.2519,5.2536,5.259,5.2682,5.2569,5.2572,5.2589,5.2809,5.2819,5.2837,5.2682,5.2685,5.2687,5.2803,0,5.1814,5.1964,5.1996,5.2125,5.22,5.2211,5.2283,5.2343,5.2377,5.2445,5.2482,5.2558,5.2536,5.2565,5.2619,5.2659,5.2726,5.2651,5.2746,5.2749,5.2729,5.2857,5.2868,5.2975,5.2819,5.2821,5.2823,0,5.1957,5.2029,5.2166,5.2244,5.2277,5.2342,5.2422,5.2487,5.2555,5.2576,5.2631,5.2643,5.2729,5.2689,5.2808,5.2756,5.2797,5.2823,5.2828,5.2837,5.2791,5.287,5.3009,5.3025,5.2847,5.2845,5.2844,0,5.2019,5.215,5.225,5.2287,5.238,5.2426,5.2466,5.2532,5.2581,5.265,5.2682,5.276,5.2802,5.2862,5.2895,5.2862,5.3012,5.2974,5.3032,5.3031,5.3062,5.3059,5.3209,5.3089,5.3088,5.3088,5.3088,0,5.2134,5.2218,5.228,5.2341,5.2436,5.2472,5.2564,5.2603,5.2662,5.2731,5.2744,5.2808,5.2848,5.2917,5.2943,5.3038,5.3057,5.3076,5.3082,5.3075,5.3073,5.3102,5.3095,5.3092,5.3091,5.309,5.309,0,5.222,5.2265,5.2374,5.2455,5.2477,5.2543,5.2611,5.2671,5.2707,5.2793,5.2816,5.2871,5.2954,5.2993,5.3094,5.3112,5.322,5.3221,5.3198,5.32,5.3256,5.325,5.3429,5.3455,5.3317,5.3318,5.3319,0,5.229,5.2355,5.2444,5.2492,5.2535,5.2612,5.2663,5.2701,5.2753,5.2837,5.2887,5.2971,5.3039,5.3171,5.3219,5.3297,5.33,5.3357,5.3311,5.3303,5.3301,5.3297,5.3304,5.3365,5.3366,5.3368,5.3368,0,5.241,5.243,5.2504,5.2587,5.2649,5.2715,5.278,5.2818,5.2866,5.2924,5.3011,5.3065,5.317,5.3253,5.3335,5.3375,5.338,5.3383,5.3401,5.3394,5.3378,5.3388,5.3221,5.3378,5.3377,5.3377,5.3376,5.3376,5.249,5.255,5.2622,5.2705,5.2759,5.282,5.2881,5.2926,5.2999,5.309,5.3107,5.3199,5.3266,5.3378,5.3421,5.3492,5.3479,5.3504,5.351,5.3516,5.3519,5.3367,5.3507,5.3507,5.3507,5.3506,5.3506,0,5.2612,5.266,5.2736,5.2828,5.2894,5.2895,5.2968,5.3022,5.3103,5.3167,5.3236,5.3336,5.3417,5.3473,5.3555,5.3602,5.3606,5.3622,5.3619,5.3628,5.3526,5.3503,5.3617,5.3617,5.3617,5.3617,5.3617,5.3617,5.2682,5.2784,5.2812,5.2941,5.2987,5.3079,5.3121,5.3178,5.3229,5.3341,5.3409,5.3446,5.3507,5.3595,5.3669,5.3683,5.3713,5.3729,5.3743,5.3647,5.3635,5.3624,5.3602,5.3736,5.3736,5.3839,5.384,5.3841]}]]